Flag for U.S.A. Weather past 2 weeks in Visalia, California, U.S.A.

Now
45 °F

Clear.


Feels Like: 43 °F
Forecast: 31 / 50 °F
Wind: 3 mph from Southwest

Location: Visalia Municipal

Current Time: Dec 28, 2014 at 7:17:21 PM

Latest Report: Dec 28, 2014 at 6:35 PM


Visibility: 10 mi

Pressure: 30.27 "Hg

Humidity: 71%

Dew point: 36 °F

Location of VisaliaLocation

Historic Weather in Visalia — Graph

°F

Visalia temperature yesterday

Maximum temperature yesterday: 55 °F (at 2:15 PM)
Minimum temperature yesterday: 32 °F (at 5:35 AM)
Average temperature yesterday: 42 °F

Past Weeks' High & Low Weather Summary

 TemperatureHumidityPressure
High63 °F (Dec 20, 1:55 PM)88% (Dec 21, 10:35 AM)30.39 "Hg (Dec 21, 10:35 AM)
Low32 °F (Dec 27, 5:35 AM)44% (Dec 27, 2:55 PM)29.89 "Hg (Dec 15, 2:15 PM)
Average49 °F75%30.15 "Hg
* Reported Dec 13 6:15 PM — Dec 28 6:15 PM, Visalia, Weather by CustomWeather, © 2014

Note: Actual official high and low records may vary slightly from our data, if they occured in-between our weather recording intervals... More about our weather records

Advertising

Visalia weather history for previous 24 hours

 ConditionsComfort  
Time TempWeatherWind HumidityBarometerVisibility
6:15 PM
Dec 28
45 °FClear.No wind71%30.27 "Hg10 mi
5:55 PM46 °FClear.No wind66%30.26 "Hg10 mi
5:35 PM46 °FClear.No wind66%30.26 "Hg10 mi
5:15 PM48 °FClear.No wind62%30.26 "Hg10 mi
4:55 PM50 °FClear.No wind58%30.25 "Hg10 mi
4:35 PM52 °FSunny.No wind54%30.25 "Hg10 mi
4:15 PM54 °FSunny.3 mph54%30.26 "Hg10 mi
3:55 PM54 °FSunny.3 mph54%30.26 "Hg10 mi
3:35 PM54 °FSunny.No wind54%30.26 "Hg10 mi
3:15 PM54 °FSunny.6 mph54%30.26 "Hg10 mi
2:55 PM54 °FSunny.5 mph54%30.26 "Hg10 mi
2:35 PM54 °FSunny.3 mph54%30.26 "Hg10 mi
2:15 PM52 °FSunny.No wind58%30.27 "Hg10 mi
1:55 PM54 °FSunny.3 mph54%30.27 "Hg10 mi
1:35 PM52 °FSunny.No wind54%30.28 "Hg10 mi
12:55 PM52 °FSunny.No wind54%30.29 "Hg10 mi
12:35 PM52 °FSunny.No wind54%30.29 "Hg10 mi
12:15 PM50 °FSunny.No wind58%30.31 "Hg10 mi
11:55 AM50 °FSunny.No wind62%30.32 "Hg10 mi
11:35 AM48 °FSunny.No wind62%30.32 "Hg10 mi
11:15 AM46 °FSunny.3 mph66%30.33 "Hg10 mi
10:55 AM46 °FSunny.No wind66%30.34 "Hg10 mi
10:35 AM45 °FSunny.No wind71%30.35 "Hg10 mi
10:15 AM45 °FSunny.3 mph71%30.35 "Hg10 mi
9:55 AM43 °FSunny.No wind71%30.35 "Hg10 mi
9:35 AM39 °FSunny.3 mph81%30.35 "Hg10 mi
9:15 AM39 °FSunny.3 mph75%30.35 "Hg10 mi
8:55 AM37 °FSunny.5 mph81%30.34 "Hg10 mi
8:35 AM37 °FSunny.6 mph75%30.34 "Hg10 mi
8:15 AM36 °FSunny.5 mph75%30.34 "Hg8 mi
7:55 AM34 °FSunny.6 mph75%30.33 "Hg4 mi
7:35 AM34 °FSunny.No wind75%30.34 "Hg4 mi
7:15 AM34 °FSunny.No wind75%30.34 "Hg4 mi
6:55 AM34 °FClear.No wind75%30.34 "Hg6 mi
6:35 AM34 °FClear.No wind81%30.33 "Hg6 mi
6:15 AM34 °FClear.No wind75%30.33 "Hg6 mi
5:55 AM34 °FClear.No wind75%30.33 "Hg5 mi
5:35 AM34 °FClear.No wind81%30.32 "Hg5 mi
5:15 AM36 °FClear.No wind75%30.32 "Hg7 mi
4:55 AM36 °FClear.No wind81%30.32 "Hg7 mi
4:35 AM36 °FClear.No wind75%30.32 "Hg5 mi
4:15 AM34 °FClear.No wind75%30.33 "Hg4 mi
3:55 AM34 °FClear.No wind75%30.33 "Hg4 mi
3:35 AM34 °FClear.No wind81%30.33 "Hg5 mi
3:15 AM36 °FClear.No wind75%30.33 "Hg6 mi
2:55 AM36 °FClear.No wind75%30.34 "Hg4 mi
2:35 AM36 °FClear.5 mph75%30.34 "Hg5 mi
2:15 AM36 °FClear.No wind75%30.34 "Hg5 mi
1:55 AM36 °FClear.No wind75%30.35 "Hg5 mi
1:35 AM36 °FClear.No wind75%30.35 "Hg5 mi
1:15 AM36 °FClear.No wind75%30.35 "Hg5 mi
12:55 AM36 °FClear.No wind75%30.35 "Hg5 mi
12:35 AM36 °FClear.3 mph75%30.35 "Hg5 mi
12:15 AM36 °FClear.No wind75%30.35 "Hg5 mi
11:55 PM
Dec 27
36 °FClear.No wind75%30.35 "Hg7 mi
11:35 PM37 °FClear.No wind70%30.36 "Hg8 mi
11:15 PM37 °FClear.No wind75%30.36 "Hg9 mi
10:55 PM37 °FClear.No wind75%30.36 "Hg8 mi
10:35 PM37 °FClear.No wind75%30.37 "Hg8 mi
10:15 PM39 °FClear.No wind70%30.38 "Hg10 mi
9:55 PM37 °FClear.No wind75%30.38 "Hg10 mi
9:35 PM39 °FClear.No wind70%30.37 "Hg10 mi
8:55 PM41 °FClear.No wind66%30.37 "Hg10 mi
8:35 PM41 °FClear.No wind66%30.38 "Hg10 mi
8:15 PM43 °FClear.No wind66%30.37 "Hg10 mi
7:35 PM43 °FClear.No wind66%30.37 "Hg10 mi
7:15 PM43 °FClear.No wind66%30.37 "Hg10 mi
Weather by CustomWeather, © 2014

See weather overviewHow to use our weather pages